Location: Newark
(34.3481°N, 134.0494°E)
Time: 20:42:35
(UTC+00:00)

Altair - All Passes

Search period start: 29 January 2020 00:00
Search period end: 08 February 2020 00:00
Orbit: 1502 x 1682 km, 47.2° (Epoch: 28 January)

Date Brightness Start Highest point End Pass type
(mag) Time Alt. Az. Time Alt. Az. Time Alt. Az.
29 Jan - 00:22:12 10° W 00:31:42 44° NNW 00:41:18 10° ENE daylight
29 Jan - 02:29:14 10° WNW 02:38:47 42° NNE 02:48:12 10° E daylight
29 Jan - 04:34:41 10° NW 04:44:54 80° NE 04:54:50 10° ESE daylight
29 Jan - 06:40:28 10° WNW 06:49:05 34° SW 06:57:29 10° S daylight
29 Jan - 19:48:54 10° S 19:56:36 27° SE 20:04:28 10° ENE visible
29 Jan - 21:50:35 10° SW 22:00:30 89° SE 22:10:44 10° NE daylight
29 Jan - 23:56:49 10° W 00:06:21 45° NNW 00:16:01 10° NE daylight
30 Jan - 02:03:56 10° WNW 02:13:25 42° N 02:22:49 10° ENE daylight
30 Jan - 04:09:27 10° NW 04:19:40 76° NNE 04:29:36 10° ESE daylight
30 Jan - 06:15:04 10° WNW 06:23:59 37° SW 06:32:40 10° SSE daylight
30 Jan - 19:24:17 10° S 19:31:31 24° SE 19:38:56 10° ENE visible
30 Jan - 21:25:26 10° SW 21:35:19 83° SE 21:45:30 10° NE visible
30 Jan - 23:31:26 10° W 23:41:00 47° NNW 23:50:43 10° NE daylight
31 Jan - 01:38:36 10° WNW 01:48:03 41° N 01:57:27 10° ENE daylight
31 Jan - 03:44:13 10° NW 03:54:25 71° NNE 04:04:22 10° ESE daylight
31 Jan - 05:49:42 10° WNW 05:58:53 41° SW 06:07:48 10° SSE daylight
31 Jan - 18:59:44 10° S 19:06:28 21° SE 19:13:20 10° E visible
31 Jan - 21:00:19 10° SW 21:10:07 78° SE 21:20:15 10° NE visible
31 Jan - 23:06:04 10° W 23:15:39 49° NNW 23:25:27 10° NE daylight
01 Feb - 01:13:16 10° WNW 01:22:40 40° N 01:32:02 10° ENE daylight
01 Feb - 03:18:59 10° NW 03:29:09 67° NNE 03:39:06 10° ESE daylight
01 Feb - 05:24:22 10° WNW 05:33:46 45° SW 05:42:56 10° SSE daylight
01 Feb - 18:35:17 10° SSE 18:41:24 19° ESE 18:47:38 10° E visible
01 Feb - 20:35:13 10° SW 20:44:56 73° SE 20:55:00 10° ENE visible
01 Feb - 22:40:43 10° W 22:50:20 51° NNW 23:00:11 10° NE daylight
02 Feb - 00:47:56 10° WNW 00:57:17 40° N 01:06:40 10° ENE daylight
02 Feb - 02:53:45 10° NW 03:03:53 64° NNE 03:13:49 10° ESE daylight
02 Feb - 04:59:02 10° WNW 05:08:38 50° SW 05:18:00 10° SSE daylight
02 Feb - 18:10:59 10° SSE 18:16:21 16° ESE 18:21:48 10° E visible
02 Feb - 20:10:09 10° SW 20:19:46 67° SE 20:29:44 10° ENE visible
02 Feb - 22:15:22 10° W 22:25:01 53° NNW 22:34:55 10° NE daylight
03 Feb - 00:22:36 10° WNW 00:31:55 39° N 00:41:16 10° ENE daylight
03 Feb - 02:28:32 10° NW 02:38:35 60° NNE 02:48:30 10° ESE daylight
03 Feb - 04:33:44 10° WNW 04:43:30 54° SW 04:53:01 10° SSE daylight
03 Feb - 06:44:25 10° WSW 06:46:42 11° WSW 06:48:58 10° SW daylight
03 Feb - 17:46:54 10° SSE 17:51:19 14° ESE 17:55:47 10° E visible
03 Feb - 19:45:07 10° SSW 19:54:36 62° SE 20:04:28 10° ENE visible
03 Feb - 21:50:03 10° W 21:59:43 55° NNW 22:09:40 10° NE daylight
03 Feb - 23:57:15 10° WNW 00:06:32 39° N 00:15:53 10° ENE daylight
04 Feb - 02:03:17 10° NW 02:13:18 57° NNE 02:23:12 10° ESE daylight
04 Feb - 04:08:28 10° WNW 04:18:21 59° SW 04:28:01 10° SSE daylight
04 Feb - 06:17:38 10° W 06:21:39 13° WSW 06:25:39 10° SW daylight
04 Feb - 17:23:13 10° SE 17:26:17 12° ESE 17:29:22 10° ESE visible
04 Feb - 19:20:07 10° SSW 19:29:28 57° SE 19:39:11 10° ENE visible
04 Feb - 21:24:44 10° WSW 21:34:25 58° NNW 21:44:24 10° NE visible
04 Feb - 23:31:54 10° WNW 23:41:09 39° N 23:50:30 10° ENE daylight
05 Feb - 01:38:02 10° NW 01:48:00 55° NNE 01:57:51 10° E daylight
05 Feb - 03:43:11 10° WNW 03:53:11 64° SW 04:02:58 10° SE daylight
05 Feb - 05:51:28 10° W 05:56:36 15° WSW 06:01:42 10° SSW daylight
05 Feb - 18:55:08 10° SSW 19:04:20 52° SE 19:13:53 10° ENE visible
05 Feb - 20:59:27 10° WSW 21:09:08 61° NNW 21:19:10 10° NE visible
05 Feb - 23:06:32 10° WNW 23:15:45 39° N 23:25:08 10° ENE daylight
06 Feb - 01:12:48 10° NW 01:22:40 52° NNE 01:32:29 10° E daylight
06 Feb - 03:17:55 10° WNW 03:28:01 69° SW 03:37:54 10° SE daylight
06 Feb - 05:25:34 10° W 05:31:32 18° WSW 05:37:28 10° SSW daylight
06 Feb - 18:30:12 10° SSW 18:39:13 48° SE 18:48:34 10° ENE visible
06 Feb - 20:34:10 10° WSW 20:43:52 65° NNW 20:53:55 10° NE visible
06 Feb - 22:41:10 10° WNW 22:50:23 40° N 22:59:46 10° ENE daylight
07 Feb - 00:47:33 10° NW 00:57:21 50° NNE 01:07:07 10° E daylight
07 Feb - 02:52:40 10° WNW 03:02:50 75° SW 03:12:49 10° SE daylight
07 Feb - 04:59:49 10° W 05:06:28 20° WSW 05:13:05 10° SSW daylight
07 Feb - 18:05:18 10° SSW 18:14:07 43° SE 18:23:14 10° ENE visible
07 Feb - 20:08:54 10° WSW 20:18:36 68° NNW 20:28:41 10° NE visible
07 Feb - 22:15:48 10° WNW 22:25:01 40° N 22:34:25 10° ENE daylight
